Home   Weather   Feira de Santana   Past weeks

Flag for Brazil Past Weather in Feira de Santana, Bahia, Brazil — Yesterday and Last 2 Weeks

Now
81 °F

Partly sunny.


Feels Like: 84 °F
Forecast: 68 / 87 °F
Wind: 14 mph from Northeast

Location: Salvador Aeroporto

Current Time: Sep 30, 2016 at 10:36:03 AM

Latest Report: Sep 30, 2016 at 10:00 AM


Visibility: N/A

Pressure: 30.01 "Hg

Humidity: 70%

Dew Point: 70 °F

Location of Feira de SantanaLocation

Past Weather in Feira de Santana — Graph

°F

Feira de Santana Temperature Yesterday

Maximum temperature yesterday: 82 °F (at 10:00 AM)
Minimum temperature yesterday: 75 °F (at 1:00 AM)
Average temperature yesterday: 78 °F

High & Low Weather Summary for the Past Weeks

 TemperatureHumidityPressure
High84 °F (Sep 16, 12:00 PM)94% (Sep 20, 6:00 AM)30.12 "Hg (Sep 20, 6:00 AM)
Low68 °F (Sep 20, 6:00 AM)48% (Sep 19, 10:00 AM)29.89 "Hg (Sep 25, 3:00 PM)
Average78 °F76%30.00 "Hg
* Reported Sep 15 9:00 AM — Sep 30 9:00 AM, Feira de Santana, Weather by CustomWeather, © 2016

Note: Actual official high and low records may vary slightly from our data, if they occured in-between our weather recording intervals... More about our weather records

Advertising

Feira de Santana Weather History for the Previous 24 Hours

Scroll right to see more
 ConditionsComfort  
Time TempWeatherWind HumidityBarometerVisibility
9:00 AM
Fri, Sep 30
82 °FScattered clouds.15 mph66%29.98 "HgN/A
8:00 AM81 °FScattered clouds.7 mph70%29.98 "HgN/A
7:00 AM77 °FScattered clouds.6 mph79%29.95 "HgN/A
6:00 AM73 °FScattered clouds.3 mph89%29.92 "HgN/A
5:00 AM73 °FPassing clouds.3 mph89%29.92 "HgN/A
3:00 AM75 °FPassing clouds.6 mph89%29.89 "HgN/A
11:00 PM
Thu, Sep 29
77 °FPassing clouds.3 mph83%29.95 "HgN/A
10:00 PM77 °FPassing clouds.5 mph83%29.98 "HgN/A
9:00 PM77 °FPartly cloudy.8 mph83%29.98 "HgN/A
8:00 PM77 °FPassing clouds.8 mph83%29.95 "HgN/A
7:00 PM77 °FPassing clouds.7 mph79%29.95 "HgN/A
6:00 PM77 °FPassing clouds.9 mph79%29.92 "HgN/A
5:00 PM79 °FScattered clouds.7 mph74%29.92 "HgN/A
4:00 PM79 °FBroken clouds.8 mph74%29.92 "HgN/A
3:00 PM79 °FBroken clouds.9 mph79%29.92 "HgN/A
2:00 PM79 °FPartly sunny.9 mph79%29.95 "HgN/A
1:00 PM79 °FBroken clouds.10 mph79%29.95 "Hg6 mi
12:00 PM77 °FLight rain. Fog.10 mph79%29.98 "Hg3 mi
11:00 AM81 °FBroken clouds.15 mph74%30.01 "HgN/A
10:00 AM82 °FBroken clouds.12 mph66%30.01 "HgN/A
Weather by CustomWeather, © 2016

See weather overviewHow to use our weather pages